This is the latest recevied weather packets stored in our database for station/object EW8324. If no packets are shown the sender has not sent any weather packets the latest 10 day(s).
| Time | Temp. | Humidity | Pressure | Rain* | Wind** | Luminosity | Snow |
|---|---|---|---|---|---|---|---|
| 1777772343 | 20.56° C | 60% | 1014.7 hPa | 0.51 mm | - | 0 W/m² | - |
| 1777772041 | 21.11° C | 60% | 1014.7 hPa | 0.51 mm | - | 0 W/m² | - |
| 1777771801 | 21.11° C | 58% | 1014.7 hPa | 0.51 mm | - | 0 W/m² | - |
| 1777771442 | 21.67° C | 57% | 1014.7 hPa | 0.51 mm | - | 0 W/m² | - |
| 1777771140 | 21.67° C | 56% | 1014.6 hPa | 0.51 mm | - | 0 W/m² | - |
| 1777770842 | 21.67° C | 55% | 1014.6 hPa | 0.51 mm | - | 0 W/m² | - |
| 1777770540 | 21.67° C | 54% | 1014.6 hPa | 0.51 mm | - | 0 W/m² | - |
| 1777770239 | 22.22° C | 54% | 1014.6 hPa | 0.51 mm | - | 0 W/m² | - |
| 1777769942 | 22.22° C | 52% | 1014.6 hPa | 0.51 mm | - | 0 W/m² | - |
| 1777769633 | 22.22° C | 52% | 1014.4 hPa | 0.51 mm | - | 5 W/m² | - |
| 1777769403 | 22.22° C | 51% | 1014.3 hPa | 0.51 mm | - | 9 W/m² | - |
| 1777769040 | 22.78° C | 52% | 1014.3 hPa | 0.76 mm | - | 9 W/m² | - |
| 1777768755 | 22.78° C | 51% | 1014.2 hPa | 0.51 mm | - | 12 W/m² | - |
| 1777768439 | 22.78° C | 51% | 1014.1 hPa | 0.51 mm | - | 14 W/m² | - |
| 1777768139 | 22.78° C | 50% | 1014 hPa | 0.51 mm | - | 16 W/m² | - |
| 1777767838 | 23.33° C | 53% | 1014.1 hPa | 0.51 mm | - | 18 W/m² | - |
| 1777767540 | 23.33° C | 50% | 1014 hPa | 0.76 mm | - | 19 W/m² | - |
| 1777767232 | 23.33° C | 49% | 1014 hPa | 0.76 mm | - | 69 W/m² | - |
| 1777766995 | 23.33° C | 48% | 1013.9 hPa | 0.51 mm | - | 70 W/m² | - |
| 1777766639 | 23.33° C | 48% | 1013.8 hPa | 0.51 mm | - | 30 W/m² | - |
| 1777766342 | 23.33° C | 48% | 1013.8 hPa | 0.51 mm | - | 25 W/m² | - |
| 1777766037 | 23.33° C | 49% | 1013.8 hPa | 0.76 mm | - | 26 W/m² | - |
| 1777765746 | 23.33° C | 49% | 1013.8 hPa | 0.76 mm | - | 42 W/m² | - |
| 1777765437 | 23.33° C | 48% | 1013.8 hPa | 0.51 mm | - | 93 W/m² | - |
| 1777765137 | 23.33° C | 47% | 1013.8 hPa | 0.51 mm | - | 41 W/m² | - |
* Rain latest hour (hover to see other rain measurements)
** Current wind speed in m/s (hover to see current wind gust speed)